Location: Newark
(33.6672°N, 93.5965°W)
Time: 13:48:50
(UTC+00:00)

LightSail 2 - Visible Passes

Search period start: 07 December 2019 00:00
Search period end: 17 December 2019 00:00
Orbit: 696 x 730 km, 24.0° (Epoch: 06 December)

Date Brightness Start Highest point End Pass type
(mag) Time Alt. Az. Time Alt. Az. Time Alt. Az.
07 Dec 6.8 00:45:26 10° WSW 00:49:37 25° S 00:52:14 17° SE visible
07 Dec 6.9 23:47:21 10° WSW 23:51:42 27° S 23:55:59 10° SE visible
08 Dec 7.2 01:33:13 10° WSW 01:36:38 18° SSW 01:36:59 18° S visible
09 Dec 7.2 00:34:53 10° WSW 00:38:44 21° SSW 00:42:33 10° SE visible
09 Dec 7.2 23:36:39 10° WSW 23:40:48 24° S 23:44:54 10° SE visible
10 Dec 7.6 01:23:27 10° SW 01:25:40 13° SSW 01:27:44 10° S visible
11 Dec 7.6 00:24:37 10° SW 00:27:46 16° SSW 00:30:54 10° SSE visible
11 Dec 7.6 23:26:08 10° WSW 23:29:51 20° SSW 23:33:32 10° SSE visible
13 Dec 8.0 00:15:19 10° SW 00:16:44 11° SSW 00:18:10 10° S visible
